Terug naar catalogus

STARLINK-11482

ActiefCommunicatieVLEO
NORAD 62520·PAYLOAD·🇺🇸 United States

Gelanceerd Jan 8, 2025 vanaf Cape Canaveral Space Force Station

Loading…

Volgende Passages (komende 24 uur)

TLE

VersSource: CelesTrak SupGP

Epoch: Sep 15, 2026, 03:27 UTC

1 62520C 25004K   26258.14423611 -.00077372  00000+0 -60099-3 0  2583
2 62520  43.0008   8.4265 0001877 264.7098 270.4570 15.70874581    18

Volg STARLINK-11482 in realtime met AllMySat

Download on the App Store